Location: Artiguedieu
(43.5000°N, 0.5454°E)
Time: 12:54:21
(UTC+00:00)

USA 308 - Pass Details

Date: 06 December 2020
Orbit: 561 x 585 km, 54.0° (Epoch: 25 January)

Event Time Altitude Azimuth Distance (km) Brightness Sun altitude
Exits shadow 05:29:46 39° 312° (NW) 882 3.4 -18.7°
Maximum altitude 05:31:20 84° 35° (NE) 594 2.9 -18.4°
Drops below altitude 10° 05:35:41 10° 126° (SE) 1,902 6.6 -17.6°
Sets 05:37:56 0° 127° (SE) 2,797 7.7 -17.2°
